This demonstration page uses our WeatherBlox Daily Observations layout. Learn more.

39.92423, -83.80882

Hourly Observations for September 17, 2018

Temp ( °F °C ) Dew Point ( °F °C ) Humidity (%) Winds ( mph kmh ) Pressure ( in mb ) Visibility ( mi km ) Precip ( " mm )
12:56 am 00:56 Cloudy 72 22.2 68 20 87 87 E 7 11 30 1016 10 16.0934 0 0
1:56 am 01:56 Clear 71 21.7 68 20 90 90 ENE 7 11 29.98 1015 10 16.0934 0 0
2:56 am 02:56 Cloudy 71 21.7 68 20 90 90 E 7 11 29.97 1015 10 16.0934 0 0
3:56 am 03:56 Mostly Cloudy with Light Rain 70 21.1 68 20 93 93 ENE 7 11 29.96 1015 10 16.0934 0 0.0254
4:56 am 04:56 Mostly Cloudy with Light Rain 69 20.6 68 20 96 96 ENE 7 11 29.94 1014 10 16.0934 0 0.0254
5:56 am 05:56 Clear with Light Rain 69 20.6 68 20 96 96 ENE 8 13 29.93 1014 10 16.0934 0 0.0254
6:56 am 06:56 Mostly Clear with Light Rain 68 20 68 20 100 100 NE 7 11 29.93 1013 10 16.0934 0 0.0254
7:56 am 07:56 Mostly Cloudy with Light Rain 68 20 68 20 100 100 NE 7 11 29.94 1014 6 9.65604 0.01 0.254
8:56 am 08:56 Cloudy 70 21.1 68 20 93 93 ENE 8 13 29.93 1014 10 16.0934 0 0.0254
9:56 am 09:56 Mostly Cloudy 71 21.7 69 20.6 94 94 ENE 7 11 29.93 1014 10 16.0934 0 0
10:56 am 10:56 Cloudy 74 23.3 69 20.6 85 85 NE 10 17 29.93 1013 10 16.0934 0 0
11:16 am 11:16 Cloudy 73 23 70 21 89 89 ENE 9 15 29.91 1013 10 16.0934 0 0
11:56 am 11:56 Cloudy 76 24.4 69 20.6 79 79 NE 12 19 29.92 1013 10 16.0934 0 0
12:27 pm 12:27 Cloudy 75 24 70 21 83 83 NNE 10 17 29.91 1013 10 16.0934 0 0
12:56 pm 12:56 Cloudy 77 25 69 20.6 77 77 NNE 10 17 29.91 1013 10 16.0934 0 0
1:43 pm 13:43 Cloudy 77 25 70 21 79 79 N 9 15 29.85 1011 10 16.0934 0 0
1:56 pm 13:56 Mostly Cloudy 78 25.6 70 21.1 76 76 N 12 19 29.89 1012 10 16.0934 0 0
2:56 pm 14:56 Mostly Cloudy 79 26.1 70 21.1 74 74 N 13 20 29.87 1012 10 16.0934 0 0
3:56 pm 15:56 Cloudy 80 26.7 69 20.6 69 69 N 12 19 29.85 1011 10 16.0934 0 0
4:56 pm 16:56 Partly Cloudy 80 26.7 68 20 67 67 N 13 20 29.85 1011 10 16.0934 0 0
5:56 pm 17:56 Sunny 79 26.1 68 20 69 69 NNE 8 13 29.85 1011 10 16.0934 0 0
6:56 pm 18:56 Mostly Cloudy 77 25 70 21.1 79 79 Calm 29.86 1011 10 16.0934 0 0.0254
7:56 pm 19:56 Clear 73 22.8 71 21.7 94 94 Calm 29.88 1012 10 16.0934 0 0
8:56 pm 20:56 Mostly Cloudy 72 22.2 71 21.7 97 97 Calm 29.9 1013 10 16.0934 0 0
9:56 pm 21:56 Clear 70 21.1 69 20.6 97 97 WNW 5 7 29.92 1013 10 16.0934 0 0
10:56 pm 22:56 Clear 70 21.1 70 21.1 100 100 Calm 29.92 1013 10 16.0934 0 0
11:56 pm 23:56 Clear 67 19.4 67 19.4 100 100 SW 3 6 29.93 1014 10 16.0934 0 0

Powered by AerisWeather